[[{"header":{"parameterUnit":"m.s-1","parameterCategory":1,"la1":30.2991,"la2":30.254,"lo1":-89.0895,"lo2":-89.0444,"dy":0.0017,"dx":0.0017,"nx":28,"ny":28,"refTime":"2024-05-18T03:00:00:Z","depth":0,"parameterNumber":2,"parameterNumberName":"U-component_of_WINDS"},"data":[0,0,0,0,0,0,0,0,0,0,0,0,0,0,0,0,0,0,0,0,0,0,0,0,0,0,0,0,0,0,0,0,0,0,0,0,0,0,0,0,0,0,0,0,0,0,0,0,0,0,0,0,0,0,0,0,0,0,-4.0991,-4.0993,0,-4.1176,-4.1178,-4.118,-4.1151,-4.1148,-4.1144,-4.1141,-4.1329,-4.1336,-4.1344,0,0,0,0,0,0,0,0,0,0,0,0,0,-4.0608,-4.0615,-4.099,-4.0993,-4.0995,-4.1176,-4.1178,-4.1181,-4.1151,-4.1147,-4.1144,-4.114,-4.1326,-4.1336,-4.1345,0,0,0,0,0,0,0,0,0,0,0,0,0,-4.0782,-4.0618,-4.099,-4.1002,-4.1005,-4.1175,-4.1178,-4.1181,-4.1152,-4.1147,-4.1143,-4.1138,-4.1323,-4.1335,-4.1346,-4.1515,0,0,-4.1383,-4.1388,0,0,0,0,0,0,0,0,-4.0772,-4.0796,-4.0998,-4.1002,-4.1005,-4.1135,-4.1112,-4.1293,-4.1153,-4.1096,-4.1141,-4.1136,-4.1268,-4.1284,-4.1329,-4.1524,-4.1532,-4.1384,-4.1391,-4.1396,-4.14,0,0,0,0,0,0,0,-4.076,-4.0788,-4.1064,-4.1001,-4.1006,-4.0998,-4.1017,-4.1146,-4.1207,-4.1101,-4.1099,-4.1122,-4.1269,-4.1318,-4.1334,-4.1535,-4.1384,-4.1394,-4.1401,-4.1406,-4.1877,-4.1882,0,0,0,0,0,0,-4.0745,-4.0778,-4.1058,-4.1069,-4.0875,-4.1008,-4.103,-4.1098,-4.1205,-4.1217,-4.1126,-4.112,-4.13,-4.132,-4.134,-4.1544,-4.1396,-4.1407,-4.1414,-4.1871,-4.1878,-4.1884,0,0,0,0,0,0,-4.0737,-4.077,-4.105,-4.0923,-4.0958,-4.102,-4.1097,-4.1105,-4.1153,-4.1224,-4.1234,-4.1165,-4.1297,-4.1323,-4.1472,-4.155,-4.1413,-4.1424,-4.1865,-4.1873,-4.1881,-4.1954,0,0,0,0,0,0,-4.0726,-4.0768,-4.0833,-4.0925,-4.0965,-4.118,-4.1102,-4.1112,-4.1174,-4.1168,-4.1263,-4.1274,-4.1295,-4.1454,-4.1484,-4.1564,-4.1433,-4.1858,-4.1869,-4.1878,-4.1945,-4.1964,-4.198,0,0,0,0,0,-4.0713,-4.0846,-4.0836,-4.087,-4.1049,-4.1185,-4.1208,-4.123,-4.1181,-4.1247,-4.1292,-4.1271,-4.1537,-4.147,-4.1503,-4.1588,-4.1853,-4.1866,-4.1877,-4.1937,-4.196,-4.1979,0,0,0,0,0,0,-4.076,-4.0858,-4.0849,-4.1016,-4.1093,-4.118,-4.1263,-4.1254,-4.1345,-4.1335,-4.1358,-4.138,-4.153,-4.1574,-4.1497,-4.1757,-4.1688,-4.1707,-4.1723,-4.1745,-4.1762,-4.1748,-4.1443,0,0,0,0,0,-4.0791,-4.0894,-4.0973,-4.1113,-4.1152,-4.1201,-4.1261,-4.1272,-4.1352,-4.1384,-4.144,-4.1517,-4.1618,-4.1684,-4.1781,-4.1951,-4.1971,-4.2026,-4.2044,-4.2058,-4.2074,-4.2166,-4.2192,-4.1923,-4.1923,-4.1923,0,0,-4.0853,-4.092,-4.0983,-4.1124,-4.1185,-4.129,-4.1229,-4.1343,-4.1421,-4.1401,-4.1545,-4.1589,-4.1676,-4.1837,-4.191,-4.1878,-4.2152,-4.2073,-4.2083,-4.2092,-4.2181,-4.2207,-4.2229,-4.1931,-4.193,-4.1928,0,0,-4.1022,-4.1083,-4.1206,-4.1268,-4.1361,-4.1393,-4.1422,-4.1511,-4.154,-4.1685,-4.1672,-4.1765,-4.1938,-4.2001,-4.2056,-4.2249,-4.2233,-4.228,-4.237,-4.2461,-4.2482,-4.2501,-4.2569,-4.2593,-4.2296,-4.2296,-4.2296,0,-4.1088,-4.1248,-4.127,-4.1386,-4.1448,-4.1436,-4.156,-4.1619,-4.1738,-4.1781,-4.1743,-4.1961,-4.2019,-4.2194,-4.2241,-4.2286,-4.232,-4.2269,-4.2477,-4.2496,-4.2514,-4.2579,-4.2605,-4.2301,-4.23,-4.23,-4.2299,0,-4.1324,-4.1435,-4.1523,-4.1639,-4.1711,-4.1831,-4.1871,-4.1941,-4.1945,-4.1981,-4.2128,-4.2198,-4.2309,-4.2351,-4.2356,-4.2527,-4.2504,-4.2472,-4.2403,-4.2544,-4.2606,-4.2631,-4.2308,-4.2306,-4.2305,-4.2304,0,0,-4.1527,-4.1655,-4.1687,-4.1739,-4.1841,-4.1926,-4.2045,-4.2154,-4.2213,-4.2296,-4.2396,-4.2543,-4.2514,-4.2576,-4.2589,-4.2668,-4.2816,-4.2626,-4.2628,-4.2658,-4.3007,-4.303,-4.3059,-4.2806,-4.2811,-4.2815,-4.2999,0,-4.1705,-4.1915,-4.1939,-4.2126,-4.2229,-4.2218,-4.2322,-4.2395,-4.2431,-4.2522,-4.2562,-4.2666,-4.262,-4.2658,-4.2736,-4.2781,-4.2886,-4.2768,-4.2898,-4.2902,-4.2876,-4.3091,-4.3116,-4.3286,-4.3024,-4.3028,-4.3031,0,-4.194,-4.203,-4.2228,-4.2315,-4.2359,-4.2452,-4.2553,-4.2641,-4.2723,-4.2744,-4.2814,-4.2816,-4.2938,-4.2866,-4.3033,-4.2953,-4.3007,-4.3037,-4.3044,-4.3057,-4.2974,-4.3108,-4.3341,-4.3366,-4.3069,-4.3066,-4.3063,0,-4.2067,-4.2238,-4.2379,-4.2424,-4.2529,-4.2595,-4.2641,-4.2719,-4.2783,-4.2872,-4.2913,-4.3015,-4.307,-4.3149,-4.3178,-4.3122,-4.3344,-4.3274,-4.3364,-4.3363,-4.341,-4.3406,-4.3654,-4.3447,-4.3446,-4.3446,-4.3445,0,-4.2263,-4.2384,-4.2437,-4.2523,-4.2659,-4.2685,-4.2817,-4.2861,-4.2931,-4.3024,-4.3022,-4.311,-4.3143,-4.3237,-4.326,-4.3395,-4.342,-4.344,-4.3445,-4.344,-4.3437,-4.3475,-4.3464,-4.3453,-4.3451,-4.345,-4.3449,0,-4.2427,-4.2468,-4.262,-4.2708,-4.2733,-4.2828,-4.2903,-4.2986,-4.3021,-4.314,-4.317,-4.3226,-4.3335,-4.3373,-4.3505,-4.3521,-4.3678,-4.3673,-4.365,-4.3651,-4.3739,-4.373,-4.4019,-4.4058,-4.3825,-4.3827,-4.3829,0,-4.2549,-4.2642,-4.274,-4.2803,-4.2852,-4.2954,-4.3019,-4.3048,-4.3117,-4.3218,-4.3288,-4.3397,-4.3486,-4.3662,-4.3714,-4.3815,-4.3812,-4.3907,-4.3827,-4.382,-4.3813,-4.3807,-4.3816,-4.3921,-4.3923,-4.3925,-4.3927,0,-4.276,-4.2775,-4.287,-4.2973,-4.3051,-4.3133,-4.3212,-4.3264,-4.3304,-4.3381,-4.3493,-4.3562,-4.3699,-4.3807,-4.3911,-4.3958,-4.395,-4.3952,-4.3978,-4.3974,-4.3957,-4.3966,-4.369,-4.3945,-4.3943,-4.3942,-4.3941,-4.394,-4.2906,-4.2988,-4.307,-4.3176,-4.3238,-4.3312,-4.3395,-4.3441,-4.3536,-4.3649,-4.366,-4.3782,-4.3861,-4.4,-4.4053,-4.4147,-4.4121,-4.4159,-4.4168,-4.4177,-4.4183,-4.3942,-4.4166,-4.4166,-4.4166,-4.4165,-4.4165,0,-4.3116,-4.3169,-4.3266,-4.3377,-4.346,-4.3446,-4.3532,-4.3603,-4.371,-4.3785,-4.3873,-4.4002,-4.4107,-4.4168,-4.4273,-4.4337,-4.4336,-4.4364,-4.4359,-4.437,-4.4201,-4.4168,-4.4363,-4.4363,-4.4363,-4.4363,-4.4363,-4.4363,-4.3235,-4.3374,-4.3399,-4.3568,-4.3619,-4.3739,-4.3789,-4.3857,-4.3918,-4.4063,-4.415,-4.4189,-4.4259,-4.4369,-4.4464,-4.4479,-4.4518,-4.4548,-4.4561,-4.4402,-4.4382,-4.4362,-4.4331,-4.4557,-4.4557,-4.4721,-4.4722,-4.4723]},{"header":{"parameterUnit":"m.s-1","parameterCategory":1,"la1":30.2991,"la2":30.254,"lo1":-89.0895,"lo2":-89.0444,"dy":0.0017,"dx":0.0017,"nx":28,"ny":28,"refTime":"2024-05-18T03:00:00:Z","depth":0,"parameterNumber":3,"parameterNumberName":"V-component_of_WINDS"},"data":[0,0,0,0,0,0,0,0,0,0,0,0,0,0,0,0,0,0,0,0,0,0,0,0,0,0,0,0,0,0,0,0,0,0,0,0,0,0,0,0,0,0,0,0,0,0,0,0,0,0,0,0,0,0,0,0,0,0,3.8424,3.8423,0,3.8333,3.8332,3.8331,3.831,3.8311,3.8312,3.8312,3.8207,3.8203,3.82,0,0,0,0,0,0,0,0,0,0,0,0,0,3.8569,3.8566,3.8424,3.8423,3.8422,3.8333,3.8332,3.8331,3.831,3.8311,3.8312,3.8312,3.8208,3.8204,3.8199,0,0,0,0,0,0,0,0,0,0,0,0,0,3.8494,3.8565,3.8424,3.8401,3.8398,3.8333,3.8332,3.833,3.831,3.8311,3.8312,3.8313,3.8209,3.8204,3.8199,3.8147,0,0,3.8183,3.8181,0,0,0,0,0,0,0,0,3.8499,3.8489,3.8406,3.8403,3.8399,3.8334,3.8344,3.8268,3.831,3.8343,3.8312,3.8313,3.8247,3.8239,3.8219,3.8142,3.8137,3.8183,3.818,3.8177,3.8176,0,0,0,0,0,0,0,3.8504,3.8493,3.8388,3.8404,3.84,3.8392,3.8382,3.833,3.829,3.834,3.8339,3.8329,3.8246,3.8224,3.8217,3.8136,3.8183,3.8178,3.8175,3.8173,3.801,3.8008,0,0,0,0,0,0,3.8515,3.8497,3.839,3.8385,3.8453,3.8388,3.8378,3.8354,3.8291,3.8282,3.8328,3.8328,3.8233,3.8223,3.8213,3.8147,3.8177,3.8173,3.817,3.8011,3.8009,3.8008,0,0,0,0,0,0,3.8518,3.8505,3.8394,3.8441,3.8426,3.8385,3.8358,3.8351,3.833,3.8282,3.8273,3.8314,3.8233,3.822,3.8164,3.8143,3.817,3.8166,3.8012,3.801,3.8009,3.8015,0,0,0,0,0,0,3.8522,3.8507,3.8489,3.8441,3.8424,3.835,3.8357,3.8349,3.8323,3.8322,3.8267,3.8258,3.8233,3.8172,3.8159,3.8136,3.8162,3.8014,3.8011,3.8009,3.8016,3.8014,3.8011,0,0,0,0,0,3.8527,3.8492,3.8488,3.8475,3.8401,3.8349,3.8339,3.8314,3.8322,3.8301,3.827,3.826,3.8148,3.8166,3.8152,3.8127,3.8015,3.8012,3.8009,3.8018,3.8014,3.8011,0,0,0,0,0,0,3.8534,3.8485,3.848,3.8429,3.8394,3.8346,3.832,3.8311,3.827,3.8271,3.8238,3.8225,3.8171,3.8143,3.8165,3.8073,3.8081,3.8075,3.8093,3.8089,3.8086,3.8093,3.8157,0,0,0,0,0,3.8531,3.8496,3.8454,3.8412,3.8395,3.8361,3.8337,3.8322,3.8282,3.8266,3.823,3.8189,3.8145,3.8115,3.8072,3.8013,3.7999,3.7989,3.7986,3.7984,3.7979,3.7944,3.7938,3.7999,3.7999,3.7999,0,0,3.8521,3.849,3.8469,3.8413,3.8384,3.8345,3.8348,3.8307,3.8277,3.8258,3.8204,3.8177,3.8128,3.8071,3.8043,3.8046,3.7959,3.7981,3.798,3.7975,3.794,3.7935,3.793,3.7997,3.7997,3.7997,0,0,3.8483,3.8458,3.842,3.8392,3.835,3.8328,3.8319,3.8272,3.8255,3.8201,3.8186,3.8148,3.8072,3.8038,3.8011,3.7963,3.7951,3.7949,3.7934,3.7901,3.7896,3.7891,3.7872,3.7866,3.7944,3.7944,3.7944,0,3.8475,3.8421,3.8401,3.8362,3.8336,3.8322,3.8282,3.8254,3.8198,3.8179,3.8184,3.8089,3.8056,3.7989,3.7978,3.7957,3.7943,3.7954,3.7899,3.7894,3.789,3.7871,3.7864,3.7944,3.7944,3.7944,3.7944,0,3.8412,3.8374,3.8348,3.8299,3.8271,3.8231,3.8202,3.8175,3.8162,3.8139,3.8082,3.8042,3.799,3.7974,3.7959,3.7905,3.7907,3.7907,3.7914,3.7884,3.7866,3.7858,3.7944,3.7944,3.7944,3.7944,0,0,3.8373,3.8317,3.8307,3.8285,3.8238,3.8206,3.8165,3.8118,3.8094,3.8056,3.8018,3.7956,3.7955,3.7924,3.7906,3.7877,3.7839,3.7879,3.7877,3.7871,3.7774,3.7773,3.7765,3.7832,3.7831,3.783,3.7777,0,3.8329,3.8259,3.824,3.8179,3.8143,3.813,3.8093,3.8058,3.8035,3.7998,3.797,3.7926,3.793,3.7911,3.7882,3.785,3.7819,3.7854,3.7792,3.779,3.7803,3.7756,3.7755,3.7707,3.777,3.7769,3.7768,0,3.8267,3.8232,3.8169,3.8127,3.8111,3.8079,3.8035,3.8001,3.796,3.7945,3.7912,3.7897,3.7849,3.7862,3.7794,3.7819,3.7792,3.7773,3.777,3.7761,3.7776,3.7743,3.7692,3.7684,3.7757,3.7757,3.7758,0,3.8243,3.818,3.8134,3.8115,3.8066,3.8044,3.8021,3.7982,3.7955,3.7915,3.7897,3.7851,3.7824,3.7787,3.7758,3.777,3.7692,3.7702,3.7674,3.7675,3.7656,3.7657,3.7597,3.7644,3.7644,3.7644,3.7644,0,3.8193,3.8154,3.8123,3.8094,3.8049,3.8027,3.7982,3.7958,3.7924,3.7888,3.7873,3.7838,3.7804,3.7763,3.774,3.7686,3.7675,3.7658,3.7652,3.7658,3.766,3.7638,3.764,3.7642,3.7642,3.7643,3.7643,0,3.8157,3.8135,3.8084,3.8043,3.8032,3.8,3.7963,3.7933,3.7911,3.7865,3.7852,3.7815,3.7767,3.7736,3.7673,3.7658,3.7598,3.7594,3.7613,3.761,3.7583,3.7585,3.7504,3.7492,3.755,3.7549,3.7549,0,3.8126,3.8096,3.8054,3.8031,3.801,3.7972,3.7946,3.7923,3.7895,3.7848,3.7822,3.7774,3.7734,3.7657,3.7622,3.7574,3.7566,3.7542,3.7558,3.7566,3.7563,3.7564,3.756,3.7538,3.7537,3.7537,3.7537,0,3.8072,3.8063,3.8028,3.7989,3.796,3.7927,3.7893,3.7874,3.7845,3.7814,3.7767,3.7737,3.7675,3.7626,3.7575,3.7547,3.7535,3.7533,3.7523,3.7527,3.7539,3.753,3.7603,3.7533,3.7534,3.7534,3.7534,3.7534,3.8035,3.8008,3.7975,3.7936,3.791,3.7879,3.7849,3.7825,3.7787,3.7738,3.7726,3.7676,3.7634,3.7566,3.7537,3.7495,3.7498,3.7484,3.748,3.7477,3.7475,3.7549,3.7486,3.7486,3.7486,3.7486,3.7486,0,3.7979,3.7957,3.7922,3.7879,3.7847,3.7845,3.7808,3.7781,3.7739,3.7704,3.7667,3.7612,3.7565,3.7527,3.7478,3.7451,3.7444,3.7438,3.7438,3.7432,3.7477,3.7489,3.7445,3.7445,3.7445,3.7445,3.7445,3.7445,3.7945,3.7899,3.7887,3.7826,3.7804,3.7758,3.7737,3.7708,3.768,3.7621,3.7584,3.7562,3.7524,3.7473,3.7428,3.7418,3.7399,3.7394,3.7382,3.7424,3.7429,3.7433,3.7444,3.7391,3.739,3.7339,3.7339,3.7339]}]]